Погода в Килиндони

Танзания     7°55′01″S   39°40′01″E
В апреле 2022 года жителям России запретили посещать сайт meteo.paraplan.net по решению Генеральной прокуратуры. Аудитория сайта уменьшилась в 10 раз. Владельцы сайта не видят смысла в поддержке погодного сервера в таких условиях. Сайт будет закрыт в октябре.
темп.,
°C
ветер,
м/с
пор.,
м/с
влажн.,
%
обл.,
%
осадки,
мм/ч
давл.,
гПа
погр.,
м
30 сентября, пт
пт3000:00+25вюв7876100 0.0 1015880
03:00+25вюв6774100 0.0 1014938
06:00+24вюв56768 0.0 1015811
09:00+25в55726 0.1 1017899
12:00+25в547214 0.2 1016667
15:00+25вюв55692 0.3 1014686
18:00+25вюв56713 0.0 1014671
21:00+25в677688 0.0 1016701
1 октября, сб
сб100:00+24в6776100 0.0 1016768
03:00+24в5675100 0.0 1015833
06:00+24вюв56758 0.1 1016758
09:00+25в44737 0.1 1018818
12:00+25вюв557721 0.4 1017618
15:00+25вюв55722 0.6 1015771
18:00+25в56750 0.0 1014704
21:00+24в67777 0.0 1016829
2 октября, вс
вс200:00+24в67756 0.1 1016848
03:00+24в457526 0.1 1015752
06:00+24в33745 0.0 1016692
09:00+25вюв34691 0.0 1018875
12:00+25юв447117 0.1 1018765
15:00+25юв44720 0.3 1015635
18:00+25юв67755 0.0 1015855
21:00+25вюв79695 0.0 1016702
3 октября, пн
пн300:00+24вюв797380 0.0 1015744
03:00+24в687598 0.0 1013801
06:00+24вюв567399 0.0 1014845
09:00+25вюв556895 0.0 10171042
12:00+25вюв556797 0.0 1016922
15:00+25вюв54689 0.0 1013763
18:00+25вюв5672100 0.0 1013699
21:00+25вюв6773100 0.0 1014554
4 октября, вт
вт400:00+24в687645 0.0 1013595
03:00+24в787695 0.0 1012681
06:00+24в56755 0.0 1014691
09:00+25вюв457423 0.0 1016866
12:00+26юв44735 0.1 1015703
15:00+25юв55756 0.1 1012681
18:00+25вюв67785 0.0 1013668
21:00+25вюв78795 0.0 1014648